FW5354 Weather Reports


Display with metric or nautical units.
time (UTC)temp
F
wind
direction
speed
MPH
gust
MPH
rain 1hr
in
rain 24hr
in
rain mn
in
humidity
%
barometer
mb
20260902113009 0 0.0 0.0 0.00 0.00 0.00 1011.3
20260902111604 0 0.0 0.0 0.00 0.00 0.00 1011.2
20260902110001 0 0.0 0.0 0.00 0.00 0.00 1011.3
20260902104557 0 0.0 0.0 0.00 0.00 0.00 1011.4
20260902103052 0 0.0 0.0 0.00 0.00 0.00 1011.5
20260902101554 0 0.0 0.0 0.00 0.00 0.00 1011.3
20260902100045 0 0.0 0.0 0.00 0.00 0.00 1011.3
20260902094548 0 0.0 0.0 0.00 0.00 0.00 1011.2
20260902093036 0 0.0 0.0 0.00 0.00 0.00 1011.2
20260902091542 0 0.0 0.0 0.00 0.00 0.00 1011.4
20260902090030 0 0.0 0.0 0.00 0.00 0.00 1011.3
20260902084526 0 0.0 0.0 0.00 0.00 0.00 1011.3
20260902083022 0 0.0 0.0 0.00 0.00 0.00 1011.3
20260902081518 0 0.0 0.0 0.00 0.00 0.00 1011.4
20260902080014 0 0.0 0.0 0.00 0.00 0.00 1011.2
20260902074509 0 0.0 0.0 0.00 0.00 0.00 1011.3
20260902073006 0 0.0 0.0 0.00 0.00 0.00 1011.4
20260902071505 0 0.0 0.0 0.00 0.00 0.00 1011.5
20260902064603 0 0.0 0.0 0.00 0.00 0.00 1011.3
20260902063052 79 138 0.0 0.0 0.00 0.00 0.00 72 1011.2
20260902060052 79 138 0.0 0.0 0.00 0.00 0.00 72 1011.0
20260902054558 79 138 0.0 0.0 0.00 0.00 0.00 72 1011.2
20260902053050 79 138 0.0 0.0 0.00 0.00 0.00 73 1010.9
20260902051554 79 138 0.0 0.0 0.00 0.00 0.00 72 1011.2
20260902050053 79 138 0.0 0.0 0.00 0.00 0.00 72 1011.3
20260902044547 79 138 0.0 0.0 0.00 0.00 0.00 71 1011.4
20260902043044 79 138 0.0 0.0 0.00 0.00 0.00 72 1011.5
20260902041556 80 138 0.0 0.0 0.00 0.00 0.00 72 1011.5
20260902040044 80 138 0.0 0.0 0.00 0.00 0.00 72 1011.5
20260902034548 80 138 0.0 1.0 0.00 0.00 0.00 72 1011.6
20260902033045 80 144 0.0 0.0 0.00 0.00 0.00 73 1011.7
20260902031541 80 144 0.0 0.0 0.00 0.00 0.00 73 1011.6
20260902030039 80 144 0.0 0.0 0.00 0.00 0.00 73 1011.3
20260902024538 81 145 0.0 0.0 0.00 0.00 0.00 73 1011.2
20260902023035 81 144 0.0 0.0 0.00 0.00 0.00 73 1010.9
20260902021540 82 144 0.0 0.0 0.00 0.00 0.00 73 1010.9
20260902020033 82 144 0.0 0.0 0.00 0.00 0.00 73 1010.6
20260902014538 82 144 0.0 0.0 0.00 0.00 0.00 73 1010.2
20260902013030 82 144 0.0 0.0 0.00 0.00 0.00 73 1010.1
20260902011536 83 144 0.0 0.0 0.00 0.00 0.00 72 1010.1
20260902010047 83 144 0.0 0.0 0.00 0.00 0.00 72 1010.1
20260902004533 83 139 0.0 0.0 0.00 0.00 0.00 72 1010.1
20260902003026 84 137 0.0 0.0 0.00 0.00 0.00 72 1010.3
20260902001525 84 146 0.0 0.0 0.00 0.00 0.00 72 1010.2
20260902000043 84 121 0.0 0.0 0.00 0.00 0.00 72 1010.0
20260901234549 84 147 0.0 0.0 0.00 0.00 0.00 72 1010.1
20260901233021 84 148 0.0 0.0 0.00 0.00 0.00 71 1010.3
20260901231524 86 143 0.0 0.0 0.00 0.00 0.00 69 1010.4
20260901230015 87 145 0.0 0.0 0.00 0.00 0.00 67 1010.4
20260901224511 89 179 0.0 0.0 0.00 0.00 0.00 65 1010.5
20260901223009 91 167 0.0 0.0 0.00 0.00 0.00 56 1010.3
20260901221519 91 162 0.0 0.0 0.00 0.00 0.00 59 1010.3
20260901220007 91 165 0.0 0.0 0.00 0.00 0.00 60 1010.3
20260901214508 91 161 0.0 0.0 0.00 0.00 0.00 60 1010.6
20260901213003 91 168 0.0 0.0 0.00 0.00 0.00 60 1010.7
20260901211504 91 169 0.0 0.0 0.00 0.00 0.00 61 1010.6
20260901204601 90 160 0.0 0.0 0.00 0.00 0.00 61 1010.5
20260901203057 89 171 0.0 0.0 0.00 0.00 0.00 62 1010.8
20260901201553 89 176 0.0 0.0 0.00 0.00 0.00 64 1011.3
20260901200101 90 167 0.0 0.0 0.00 0.00 0.00 62 1011.8
20260901194603 90 164 0.0 0.0 0.00 0.00 0.00 62 1011.9
20260901193052 90 172 0.0 0.0 0.00 0.00 0.00 58 1011.9
20260901191548 91 170 0.0 0.0 0.00 0.00 0.00 61 1011.9
20260901184543 90 170 0.0 0.0 0.00 0.00 0.00 59 1012.1
20260901183044 91 150 0.0 0.0 0.00 0.00 0.00 61 1012.2
20260901181549 90 143 0.0 0.0 0.00 0.00 0.00 61 1012.5
20260901180044 90 167 0.0 0.0 0.00 0.00 0.00 62 1012.5
20260901174543 89 169 0.0 0.0 0.00 0.00 0.00 65 1012.9
20260901173102 89 174 0.0 0.0 0.00 0.00 0.00 65 1013.3
20260901171542 89 173 0.0 0.0 0.00 0.00 0.00 65 1013.6
20260901170040 89 177 0.0 0.0 0.00 0.00 0.00 65 1013.9
20260901164540 89 176 0.0 0.0 0.00 0.00 0.00 67 1013.7
20260901163039 88 196 0.0 0.0 0.00 0.00 0.00 67 1013.7
20260901161539 88 201 0.0 0.0 0.00 0.00 0.00 67 1013.7
20260901160042 89 172 0.0 0.0 0.00 0.00 0.00 69 1013.6
20260901154540 89 179 0.0 0.0 0.00 0.00 0.00 67 1013.6
20260901153040 87 217 0.0 0.0 0.00 0.00 0.00 71 1013.6
20260901151537 86 209 0.0 1.0 0.00 0.00 0.00 72 1013.5
20260901150038 85 210 0.0 0.0 0.00 0.00 0.00 72 1013.7
20260901144540 84 210 0.0 0.0 0.00 0.00 0.00 73 1013.9
20260901143041 83 213 0.0 0.0 0.00 0.00 0.00 71 1013.7
20260901141545 82 210 0.0 0.0 0.00 0.00 0.00 67 1013.8
20260901140038 81 210 0.0 0.0 0.00 0.00 0.00 63 1013.9
20260901134538 80 213 0.0 0.0 0.00 0.00 0.00 61 1014.0
20260901133040 80 208 0.0 0.0 0.00 0.00 0.00 60 1013.7
20260901131534 80 210 0.0 0.0 0.00 0.00 0.00 57 1013.6
20260901130030 79 200 0.0 0.0 0.00 0.00 0.00 55 1013.5
20260901124529 0 0.0 0.0 0.00 0.00 0.00 1013.2
20260901123029 0 0.0 0.0 0.00 0.00 0.00 1013.0
20260901121528 0 0.0 0.0 0.00 0.00 0.00 1012.9
20260901120029 0 0.0 0.0 0.00 0.00 0.00 1012.6
20260901114528 0 0.0 0.0 0.00 0.00 0.00 1012.6